Volver al catálogo

STARLINK-2611

ActivoComunicacionesVLEO
NORAD 48364·PAYLOAD·🇺🇸 United States

Lanzado May 4, 2021 desde Cape Canaveral Space Force Station

Loading…

Próximos Pases (próximas 24 horas)

TLE

ActualizadoSource: CelesTrak SupGP

Época: Sep 14, 2026, 20:24 UTC

1 48364C 21038M   26257.85048611  .00005992  00000+0  19272-3 0  2579
2 48364  53.1572 187.4874 0001359  98.4819 334.3560 15.31694029    11

Sigue STARLINK-2611 en tiempo real con AllMySat

Download on the App Store